Location: Unspecified
(0.0000°N, 0.0000°E)
Time: 23:46:35
(UTC+00:00)

deb Explorer IX - Pass Details

Date: 27 June 2019
Orbit: 539 x 1112 km, 38.8° (Epoch: 21 July)

Event Time Altitude Azimuth Distance (km) Brightness Sun altitude
Rises 18:44:05 0° 326° (NW) 3,859 ? -9.4°
Reaches altitude 10° 18:47:10 10° 334° (NNW) 2,852 ? -10.1°
Maximum altitude 18:53:28 36° 39° (NE) 1,472 ? -11.5°
Enters shadow 18:57:56 15° 98° (E) 2,196 ? -12.6°
